星链-35519(STARLINK-35519)

导读

STARLINK-35519是美国SpaceX星链卫星互联网项目的一员,于2025年10月8日发射升空。星链计划通过部署近万颗低轨卫星搭建全球卫星互联网,该卫星入轨后,将进一步扩充星链星座的规模,为全球多地用户提供高速低延迟的宽带网络服务,助力提升星链系统的覆盖范围与服务稳定性。

Basic Information
目录编号:
65919
目录名称:
STARLINK-35519
国际标识:
2025-225K
轨道中心:
EARTH
卫星名称:
星链-35519
卫星全名:
星链-35519(STARLINK-35519)
卫星状态:
在轨 (已飞行331 天)
发射日期:
2025-10-08 UTC
国别 :
美国 (US)
星等 :
--
Orbit Information
数据来源 国际轨道数据
星历时间: 2026-09-02T06:11:51+0800
2天前
查看轨道信息
半长轴: 6840.848km
偏心率: 0.0000886
轨道倾角: 53.158°
近地点辐角 89.213°
升交点赤经 64.731°
平近点角 270.898°
近地点: 462.104km
远地点: 463.318km
周期: 93.848分钟
每日圈数: 15.343976
Detailed Information
固有亮度:
5
最大亮度:
2.5
卫星平台:
Starlink V1.0
覆盖范围:
全球
运营商:
太空探索技术公司
运营商所在国:
美国
制造商(研发单位):
太空探索技术公司
制造商所在国:
美国
使用方式:
暂无
Satellite Introduction
Starlink 计划是 SpaceX 推出的全球卫星互联网项目,通过发射低轨道卫星,为全球尤其是偏远地区提供高速、低延迟的互联网服务。自 2019 年起,Starlink 已部署数千颗卫星,旨在缩小全球数字鸿沟,推动互联网普及。该项目还为军事、航空等行业提供通信支持,带来广泛经济效益。
2D Orbit Map
3D Orbit Map
Orbit Altitude Analysis Chart
Orbit Inclination Analysis Chart
Orbit Comprehensive Analysis Chart
View Comprehensive Chart
Conjunction Data List
Event ID Objects TCA Miss Dist (km) Collision Risk Probability Collision Risk Index (CRI) Action
CDM_260827-221806-297006-591921
2026-08-27T
22:18:26+0000
0.287 km
中距离
3.879204E-4 高风险 0.87
CDM_260827-204406-297006-591921
2026-08-27T
20:44:39+0000
1.898 km
极远距离
2.00773E-6 低风险 0.41
CDM_260827-235206-297006-591921
2026-08-27T
23:52:13+0000
2.022 km
极远距离
1.715152E-6 低风险 0.4
CDM_260905-081006-489206-591921
OBJECT S (64892)
2026-09-05T
08:10:41+0000
2.729 km
极远距离
1.51559E-6 低风险 0.39
CDM_260904-104506-591906-995521
2026-09-04T
10:45:56+0000
1.394 km
极远距离
1.26426E-6 低风险 0.37
CDM_260904-130606-591906-995521
2026-09-04T
13:06:37+0000
1.689 km
极远距离
7.510658E-7 极低风险 0.33
CDM_260904-113206-591906-995521
2026-09-04T
11:32:50+0000
2.397 km
极远距离
3.749244E-7 极低风险 0.26